CZ-4 DEB

Satellite information

Favourite Embed

Satellite Type and Status

DEBRISIN ORBIT

Key statistics

Satellite CZ-4 DEB at a glance.

Uptime

9518

Days in orbit

Revolutions

≈ 14.6

Per day

Orbit

SSO

Sun Synchronous Orbit

Inclination

98.4

Latest

Satellite identification and parameters

Extended collection of information and parameters for CZ-4 DEB.

Object identification

Identified? True

Debris? True

Object name: CZ-4 DEB

International designator: 1999-057MM

Object number (NORAD): 27492

Object ID (CCSDS): 27492

Country: PEOPLES REPUBLIC OF CHINA (PRC)

Current information (Y/N): Y

RCS size: SMALL

Orbital parameters

Period: 98.672 minutes

Inclination: 98.4196 deg

SMA: 7073.321 km

Apoapsis: 750.916 km

Periapsis: 639.456 km

RAAN: 357.063 deg

Eccentricy: 0.0078789

Argument of periapsis: 2.4641 deg

Mean anomaly: 357.6931 deg

Mean motion: 14.59377645 rev/day

Mean motion (dot): 0.00004871 rev/day2

B* drag term: 0.0009955 1/REarth

Two-line elements (TLE)

Creation date: Nov. 3, 2025, 11:26 p.m.

Reference frame: TEME

Reference center: EARTH

Epoch: Nov. 3, 2025, 2:34 p.m. UTC

TLE line 0: 0 CZ-4 DEB

TLE line 1: 1 27492U 99057MM 25307.60763787 .00004871 00000-0 99550-3 0 9996

TLE line 2: 2 27492 98.4196 357.0630 0078789 2.4641 357.6931 14.59377645290492

Live tracking on map

Real-time ground track for satellite CZ-4 DEB.

In-orbit conjunctions

A list of the most updated potential collisions computed for object CZ-4 DEB.

Target Orbit TCA Probability of collision Miss distance Type
CZ-6A DEB LEO 2025-02-18 02:00:57 0.0001094587 426.0 (m) DEBRIS
PICOSAT 5 SSO 2025-01-06 08:14:34 0.00010682 326.0 (m) PAYLOAD
IRIDIUM 33 DEB LEO 2024-11-14 10:04:19 0.0001887771 50.0 (m) DEBRIS

Associated space launch

The CBERS (China Brazil Earth Resources Satellite) or ZY 1 (Zi Yuan) satellites are designed for global coverage and include cameras to make optical observations and a data collecting system to gather data on the environment. They are unique systems due to the use of on-board sensors which combine features that are especially designed to resolve the broad range of space and time scales involved in the monitoring and preservation of the ecosystem. They are operated jointly by the China Centre for Resources Satellite Data and Application (CRESDA) and the Brazilian INPE (Instituto Nacional de Pesquisas Espaciais, National Institute of Space Research).

CZ-4 DEB was lifted into orbit during the mission ‘Long March 4B | Zi Yuan 1-1’, on board a Long March 4B space rocket.

The launch took place on Oct. 14, 1999, 3:15 a.m. from Launch Complex 7.

For more information about the launch, click the button.

Launch to space Long March 4B | Zi Yuan 1-1
Long March 4B | Zi Yuan 1-1

Agency: N/A

Status: Launch Successful

Launch date: Oct. 14, 1999, 3:15 a.m. UTC

Rocket: Long March 4B

Launch pad: Launch Complex 7

Location: Taiyuan Satellite Launch Center, People's Republic of China

...

Latest news about this satellite

There are no fresh news available about this satellite. Check back as we update our databases every day.


Newsletter sign-up

Weekly statistics, charts and insights to help you stay on top of the space industry.